This is the latest recevied weather packets stored in our database for station/object WA6OOO. If no packets are shown the sender has not sent any weather packets the latest 10 day(s).
| Time | Temp. | Humidity | Pressure | Rain* | Wind** | Luminosity | Snow |
|---|---|---|---|---|---|---|---|
| 1788473660 | 24.44° C | 62% | 1016.4 hPa | 0 mm | - | 533 W/m² | - |
| 1788473358 | 24.44° C | 63% | 1016.3 hPa | 0 mm | - | 543 W/m² | - |
| 1788473053 | 25° C | 63% | 1016.2 hPa | 0 mm | - | 555 W/m² | - |
| 1788472750 | 24.44° C | 63% | 1016.2 hPa | 0 mm | - | 563 W/m² | - |
| 1788472448 | 24.44° C | 63% | 1016.5 hPa | 0 mm | - | 575 W/m² | - |
| 1788472145 | 24.44° C | 64% | 1016.5 hPa | 0 mm | - | 581 W/m² | - |
| 1788471841 | 24.44° C | 63% | 1016.6 hPa | 0 mm | - | 588 W/m² | - |
| 1788471541 | 23.89° C | 64% | 1016.4 hPa | 0 mm | - | 603 W/m² | - |
| 1788471236 | 24.44° C | 64% | 1016.5 hPa | 0 mm | - | 613 W/m² | - |
| 1788470932 | 24.44° C | 64% | 1016.7 hPa | 0 mm | - | 624 W/m² | - |
| 1788470627 | 23.89° C | 65% | 1016.5 hPa | 0 mm | - | 631 W/m² | - |
| 1788470327 | 24.44° C | 63% | 1016.5 hPa | 0 mm | - | 642 W/m² | - |
| 1788470023 | 23.89° C | 65% | 1016.7 hPa | 0 mm | - | 650 W/m² | - |
| 1788469719 | 23.89° C | 66% | 1016.7 hPa | 0 mm | - | 656 W/m² | - |
| 1788469413 | 24.44° C | 65% | 1016.6 hPa | 0 mm | - | 666 W/m² | - |
| 1788469113 | 23.89° C | 65% | 1016.8 hPa | 0 mm | - | 673 W/m² | - |
| 1788468813 | 23.89° C | 65% | 1016.7 hPa | 0 mm | - | 678 W/m² | - |
| 1788468508 | 23.89° C | 67% | 1016.6 hPa | 0 mm | - | 683 W/m² | - |
| 1788468204 | 23.89° C | 66% | 1016.8 hPa | 0 mm | - | 686 W/m² | - |
| 1788467900 | 23.89° C | 66% | 1016.9 hPa | 0 mm | - | 689 W/m² | - |
| 1788467596 | 23.89° C | 67% | 1017 hPa | 0 mm | - | 695 W/m² | - |
| 1788467294 | 23.89° C | 68% | 1016.9 hPa | 0 mm | - | 695 W/m² | - |
| 1788466991 | 23.89° C | 67% | 1016.8 hPa | 0 mm | - | 698 W/m² | - |
| 1788466690 | 23.89° C | 67% | 1016.7 hPa | 0 mm | - | 699 W/m² | - |
| 1788466386 | 23.89° C | 67% | 1016.8 hPa | 0 mm | - | 698 W/m² | - |
* Rain latest hour (hover to see other rain measurements)
** Current wind speed in m/s (hover to see current wind gust speed)